When you browse on this site, cookies collect data to enhance your experience and personalize the content and advertising you see.
Visit our Privacy Policy to learn more. By continuing to use the site, you agree to this use of cookies and data.
  • In Austria
  • List of Countries
  • For 7 days
  • Water Temperature
  • Weather Map
  • News
  • Weather Widgets
  • user-avatar
    Login

    Hourly Weather Viedma

    Today, 12 December, Thursday

    Time Temperature Precipitation Wind Pressure Humidity
    00:00 +17°C° 0 mm 12 mps 751 mmHg 36%
    01:00 +16°C° 0 mm 11 mps 752 mmHg 44%
    02:00 +13°C° 0 mm 9 mps 753 mmHg 49%
    03:00 +12°C° 0 mm 9 mps 753 mmHg 50%
    04:00 +12°C° 0 mm 9 mps 754 mmHg 51%
    05:00 +11°C° 0 mm 10 mps 754 mmHg 52%
    06:00 +12°C° 0 mm 10 mps 755 mmHg 48%
    07:00 +13°C° 0 mm 11 mps 756 mmHg 44%
    08:00 +14°C° 0 mm 12 mps 757 mmHg 40%
    09:00 +16°C° 0 mm 11 mps 757 mmHg 38%
    10:00 +17°C° 0 mm 11 mps 757 mmHg 36%
    11:00 +18°C° 0 mm 11 mps 758 mmHg 35%
    12:00 +18°C° 0 mm 10 mps 757 mmHg 33%
    13:00 +18°C° 0 mm 9 mps 757 mmHg 32%
    14:00 +19°C° 0 mm 9 mps 757 mmHg 31%
    15:00 +18°C° 0 mm 8 mps 757 mmHg 32%
    16:00 +18°C° 0 mm 7 mps 757 mmHg 32%
    17:00 +19°C° 0 mm 6 mps 757 mmHg 33%
    18:00 +16°C° 0 mm 5 mps 757 mmHg 38%
    19:00 +15°C° 0 mm 4 mps 757 mmHg 43%
    20:00 +13°C° 0 mm 3 mps 758 mmHg 48%
    21:00 +13°C° 0 mm 3 mps 758 mmHg 50%
    22:00 +12°C° 0 mm 4 mps 757 mmHg 53%
    23:00 +12°C° 0 mm 4 mps 757 mmHg 55%

    Tomorrow, 13 December, Friday

    Time Temperature Precipitation Wind Pressure Humidity
    00:00 +12°C° 0 mm 4 mps 757 mmHg 55%
    01:00 +12°C° 0 mm 5 mps 756 mmHg 54%
    02:00 +13°C° 0 mm 6 mps 756 mmHg 54%
    03:00 +13°C° 0 mm 6 mps 755 mmHg 54%
    04:00 +13°C° 0 mm 6 mps 755 mmHg 53%
    05:00 +14°C° 0 mm 6 mps 755 mmHg 52%
    06:00 +15°C° 0 mm 7 mps 754 mmHg 45%
    07:00 +16°C° 0 mm 8 mps 754 mmHg 37%
    08:00 +18°C° 0 mm 9 mps 754 mmHg 30%
    09:00 +21°C° 0 mm 9 mps 754 mmHg 25%
    10:00 +23°C° 0 mm 10 mps 753 mmHg 21%
    11:00 +27°C° 0 mm 10 mps 753 mmHg 17%
    12:00 +28°C° 0 mm 10 mps 752 mmHg 16%
    13:00 +28°C° 0 mm 10 mps 752 mmHg 15%
    14:00 +29°C° 0 mm 10 mps 751 mmHg 15%
    15:00 +28°C° 0 mm 10 mps 750 mmHg 17%
    16:00 +27°C° 0 mm 9 mps 750 mmHg 19%
    17:00 +24°C° 0 mm 8 mps 749 mmHg 22%
    18:00 +22°C° 0 mm 7 mps 750 mmHg 26%
    19:00 +20°C° 0 mm 5 mps 750 mmHg 31%
    20:00 +19°C° 0 mm 4 mps 750 mmHg 35%
    21:00 +18°C° 0 mm 3 mps 751 mmHg 40%
    22:00 +17°C° 0 mm 2 mps 751 mmHg 45%
    23:00 +17°C° 0 mm 2 mps 751 mmHg 50%

    Day after tomorrow, 14 December, Saturday

    Time Temperature Precipitation Wind Pressure Humidity
    00:00 +17°C° 0 mm 2 mps 752 mmHg 47%
    01:00 +17°C° 0 mm 3 mps 752 mmHg 44%
    02:00 +17°C° 0 mm 3 mps 752 mmHg 41%
    03:00 +17°C° 0 mm 3 mps 753 mmHg 41%
    04:00 +17°C° 0 mm 3 mps 753 mmHg 42%
    05:00 +15°C° 0 mm 4 mps 753 mmHg 42%
    06:00 +18°C° 0 mm 4 mps 754 mmHg 37%
    07:00 +20°C° 0 mm 5 mps 754 mmHg 33%
    08:00 +22°C° 0 mm 6 mps 755 mmHg 28%
    09:00 +23°C° 0 mm 6 mps 755 mmHg 26%
    10:00 +24°C° 0 mm 6 mps 755 mmHg 24%
    11:00 +26°C° 0 mm 6 mps 755 mmHg 22%
    12:00 +27°C° 0 mm 6 mps 755 mmHg 21%
    13:00 +27°C° 0 mm 6 mps 755 mmHg 20%
    14:00 +28°C° 0 mm 6 mps 754 mmHg 19%
    15:00 +27°C° 0 mm 6 mps 754 mmHg 19%
    16:00 +27°C° 0 mm 5 mps 754 mmHg 19%
    17:00 +26°C° 0 mm 4 mps 754 mmHg 20%
    18:00 +23°C° 0 mm 4 mps 755 mmHg 29%
    19:00 +20°C° 0 mm 4 mps 755 mmHg 38%
    20:00 +18°C° 0 mm 4 mps 755 mmHg 48%
    21:00 +17°C° 0 mm 4 mps 756 mmHg 51%
    22:00 +17°C° 0 mm 4 mps 756 mmHg 55%
    23:00 +15°C° 0 mm 4 mps 756 mmHg 59%

    15 December, Sunday

    Time Temperature Precipitation Wind Pressure Humidity
    00:00 +15°C° 0 mm 4 mps 756 mmHg 60%
    01:00 +14°C° 0 mm 3 mps 755 mmHg 60%
    02:00 +14°C° 0 mm 3 mps 755 mmHg 61%
    03:00 +14°C° 0 mm 3 mps 756 mmHg 61%
    04:00 +14°C° 0 mm 3 mps 756 mmHg 62%
    05:00 +16°C° 0 mm 3 mps 756 mmHg 63%
    06:00 +18°C° 0 mm 4 mps 756 mmHg 52%
    07:00 +20°C° 0 mm 5 mps 756 mmHg 42%
    08:00 +23°C° 0 mm 6 mps 757 mmHg 31%
    09:00 +24°C° 0 mm 6 mps 757 mmHg 30%
    10:00 +24°C° 0 mm 6 mps 757 mmHg 28%
    11:00 +26°C° 0 mm 7 mps 757 mmHg 26%
    12:00 +26°C° 0 mm 6 mps 756 mmHg 26%
    13:00 +27°C° 0 mm 6 mps 756 mmHg 25%
    14:00 +27°C° 0 mm 5 mps 756 mmHg 25%
    15:00 +26°C° 0 mm 5 mps 756 mmHg 26%
    16:00 +26°C° 0 mm 5 mps 755 mmHg 26%
    17:00 +25°C° 0 mm 4 mps 755 mmHg 27%
    18:00 +22°C° 0 mm 4 mps 755 mmHg 34%
    19:00 +20°C° 0 mm 4 mps 756 mmHg 40%
    20:00 +18°C° 0 mm 4 mps 756 mmHg 46%
    21:00 +18°C° 0 mm 4 mps 756 mmHg 49%
    22:00 +17°C° 0 mm 3 mps 756 mmHg 52%
    23:00 +16°C° 0 mm 3 mps 756 mmHg 55%

    16 December, Monday

    Time Temperature Precipitation Wind Pressure Humidity
    00:00 +16°C° 0 mm 2 mps 755 mmHg 58%
    01:00 +15°C° 0 mm 2 mps 755 mmHg 61%
    02:00 +15°C° 0 mm 1 mps 755 mmHg 64%
    03:00 +15°C° 0 mm 1 mps 755 mmHg 65%
    04:00 +14°C° 0 mm 1 mps 755 mmHg 67%
    05:00 +14°C° 0 mm 1 mps 755 mmHg 69%
    06:00 +17°C° 0 mm 2 mps 755 mmHg 57%
    07:00 +20°C° 0 mm 2 mps 755 mmHg 45%
    08:00 +22°C° 0 mm 3 mps 755 mmHg 34%
    09:00 +25°C° 0 mm 3 mps 755 mmHg 30%
    10:00 +26°C° 0 mm 4 mps 755 mmHg 27%
    11:00 +28°C° 0 mm 4 mps 755 mmHg 24%
    12:00 +28°C° 0 mm 5 mps 754 mmHg 24%
    13:00 +28°C° 0 mm 5 mps 754 mmHg 25%
    14:00 +28°C° 0 mm 6 mps 753 mmHg 25%
    15:00 +28°C° 0 mm 5 mps 753 mmHg 24%
    16:00 +27°C° 0 mm 4 mps 753 mmHg 22%
    17:00 +27°C° 0 mm 4 mps 753 mmHg 21%
    18:00 +25°C° 0 mm 3 mps 753 mmHg 24%
    19:00 +23°C° 0 mm 2 mps 753 mmHg 27%
    20:00 +20°C° 0 mm 2 mps 753 mmHg 30%
    21:00 +19°C° 0 mm 2 mps 753 mmHg 40%
    22:00 +19°C° 0 mm 3 mps 753 mmHg 49%
    23:00 +18°C° 0 mm 4 mps 753 mmHg 58%

    17 December, Tuesday

    Time Temperature Precipitation Wind Pressure Humidity
    00:00 +17°C° 0 mm 3 mps 753 mmHg 59%
    01:00 +17°C° 0 mm 3 mps 753 mmHg 60%
    02:00 +17°C° 0 mm 3 mps 752 mmHg 61%
    03:00 +17°C° 0 mm 3 mps 752 mmHg 56%
    04:00 +17°C° 0 mm 3 mps 752 mmHg 51%
    05:00 +17°C° 0 mm 3 mps 751 mmHg 46%
    06:00 +20°C° 0 mm 4 mps 751 mmHg 41%
    07:00 +23°C° 0 mm 6 mps 751 mmHg 35%
    08:00 +26°C° 0 mm 7 mps 751 mmHg 30%
    09:00 +29°C° 0 mm 7 mps 750 mmHg 25%
    10:00 +32°C° 0 mm 7 mps 750 mmHg 20%
    11:00 +35°C° 0 mm 7 mps 749 mmHg 15%
    12:00 +35°C° 0 mm 7 mps 748 mmHg 15%
    13:00 +35°C° 0 mm 8 mps 747 mmHg 15%
    14:00 +35°C° 0 mm 8 mps 747 mmHg 14%
    15:00 +35°C° 0 mm 6 mps 746 mmHg 15%
    16:00 +34°C° 0 mm 5 mps 746 mmHg 15%
    17:00 +33°C° 0 mm 4 mps 745 mmHg 16%
    18:00 +30°C° 0 mm 4 mps 745 mmHg 20%
    19:00 +28°C° 0 mm 5 mps 745 mmHg 24%
    20:00 +25°C° 0 mm 5 mps 744 mmHg 28%
    21:00 +25°C° 0 mm 5 mps 745 mmHg 28%
    22:00 +25°C° 0 mm 4 mps 745 mmHg 29%
    23:00 +23°C° 0 mm 4 mps 745 mmHg 29%
    Show more